| time (UTC) | temp F | wind direction | speed MPH | gust MPH | rain 1hr in | rain 24hr in | rain mn in | humidity % | barometer mb |
| 20260901161100 | 79 | 39 | 1.0 | 3.0 | 0.00 | 0.00 | 0.00 | 48 | 1018.8 |
| 20260901160551 | 79 | 5 | 0.0 | 4.0 | 0.00 | 0.00 | 0.00 | 47 | 1018.9 |
| 20260901160033 | 78 | 289 | 1.0 | 4.0 | 0.00 | 0.00 | 0.00 | 49 | 1019.0 |
| 20260901155545 | 78 | 317 | 1.0 | 3.0 | 0.00 | 0.00 | 0.00 | 49 | 1019.0 |
| 20260901155040 | 78 | 51 | 1.0 | 4.0 | 0.00 | 0.00 | 0.00 | 48 | 1019.0 |
| 20260901154534 | 79 | 13 | 0.0 | 5.0 | 0.00 | 0.00 | 0.00 | 48 | 1019.1 |
| 20260901154049 | 80 | 348 | 2.0 | 5.0 | 0.00 | 0.00 | 0.00 | 47 | 1019.1 |
| 20260901153609 | 80 | 317 | 0.0 | 3.0 | 0.00 | 0.00 | 0.00 | 46 | 1019.1 |
| 20260901153034 | 80 | 330 | 0.0 | 1.0 | 0.00 | 0.00 | 0.00 | 47 | 1019.1 |
| 20260901152529 | 79 | 213 | 0.0 | 1.0 | 0.00 | 0.00 | 0.00 | 47 | 1019.1 |
| 20260901152048 | 79 | 317 | 0.0 | 1.0 | 0.00 | 0.00 | 0.00 | 48 | 1019.1 |
| 20260901151538 | 79 | 85 | 0.0 | 6.0 | 0.00 | 0.00 | 0.00 | 49 | 1019.1 |
| 20260901151046 | 80 | 338 | 1.0 | 8.0 | 0.00 | 0.00 | 0.00 | 47 | 1019.2 |
| 20260901150536 | 80 | 299 | 2.0 | 6.0 | 0.00 | 0.00 | 0.00 | 46 | 1019.1 |
| 20260901150058 | 80 | 311 | 1.0 | 6.0 | 0.00 | 0.00 | 0.00 | 48 | 1019.1 |
| 20260901145529 | 79 | 183 | 0.0 | 4.0 | 0.00 | 0.00 | 0.00 | 49 | 1019.1 |
| 20260901145034 | 79 | 46 | 1.0 | 5.0 | 0.00 | 0.00 | 0.00 | 49 | 1019.2 |
| 20260901144548 | 79 | 51 | 2.0 | 5.0 | 0.00 | 0.00 | 0.00 | 49 | 1019.2 |
| 20260901144042 | 78 | 87 | 0.0 | 3.0 | 0.00 | 0.00 | 0.00 | 51 | 1019.2 |
| 20260901143601 | 78 | 16 | 0.0 | 4.0 | 0.00 | 0.00 | 0.00 | 50 | 1019.3 |
| 20260901143055 | 78 | 20 | 1.0 | 5.0 | 0.00 | 0.00 | 0.00 | 49 | 1019.3 |
| 20260901142608 | 78 | 294 | 1.0 | 6.0 | 0.00 | 0.00 | 0.00 | 51 | 1019.3 |
| 20260901142039 | 78 | 10 | 2.0 | 5.0 | 0.00 | 0.00 | 0.00 | 51 | 1019.4 |
| 20260901141535 | 78 | 355 | 1.0 | 6.0 | 0.00 | 0.00 | 0.00 | 51 | 1019.4 |
| 20260901141053 | 77 | 355 | 1.0 | 6.0 | 0.00 | 0.00 | 0.00 | 50 | 1019.5 |
| 20260901140540 | 77 | 12 | 1.0 | 5.0 | 0.00 | 0.00 | 0.00 | 51 | 1019.5 |
| 20260901140030 | 77 | 53 | 1.0 | 4.0 | 0.00 | 0.00 | 0.00 | 52 | 1019.4 |
| 20260901135540 | 77 | 65 | 1.0 | 4.0 | 0.00 | 0.00 | 0.00 | 50 | 1019.4 |
| 20260901135034 | 78 | 360 | 1.0 | 4.0 | 0.00 | 0.00 | 0.00 | 50 | 1019.5 |
| 20260901134547 | 78 | 5 | 2.0 | 4.0 | 0.00 | 0.00 | 0.00 | 52 | 1019.5 |
| 20260901134040 | 77 | 19 | 1.0 | 4.0 | 0.00 | 0.00 | 0.00 | 50 | 1019.5 |
| 20260901133529 | 78 | 17 | 1.0 | 5.0 | 0.00 | 0.00 | 0.00 | 50 | 1019.7 |
| 20260901133036 | 78 | 277 | 1.0 | 5.0 | 0.00 | 0.00 | 0.00 | 49 | 1019.7 |
| 20260901132544 | 79 | 323 | 1.0 | 4.0 | 0.00 | 0.00 | 0.00 | 49 | 1019.8 |
| 20260901132037 | 78 | 209 | 0.0 | 9.0 | 0.00 | 0.00 | 0.00 | 52 | 1019.9 |
| 20260901131529 | 78 | 325 | 4.0 | 9.0 | 0.00 | 0.00 | 0.00 | 52 | 1019.9 |
| 20260901131040 | 77 | 5 | 0.0 | 5.0 | 0.00 | 0.00 | 0.00 | 51 | 1019.8 |
| 20260901130555 | 78 | 16 | 1.0 | 5.0 | 0.00 | 0.00 | 0.00 | 50 | 1019.8 |
| 20260901130042 | 78 | 325 | 0.0 | 6.0 | 0.00 | 0.00 | 0.00 | 50 | 1019.8 |
| 20260901125536 | 78 | 355 | 2.0 | 6.0 | 0.00 | 0.00 | 0.00 | 52 | 1019.9 |
| 20260901125046 | 78 | 46 | 2.0 | 8.0 | 0.00 | 0.00 | 0.00 | 53 | 1020.0 |
| 20260901124541 | 76 | 306 | 2.0 | 9.0 | 0.00 | 0.00 | 0.00 | 54 | 1020.1 |
| 20260901124033 | 76 | 355 | 4.0 | 9.0 | 0.00 | 0.00 | 0.00 | 54 | 1020.1 |
| 20260901123536 | 76 | 340 | 2.0 | 6.0 | 0.00 | 0.00 | 0.00 | 54 | 1020.1 |
| 20260901123053 | 76 | 345 | 2.0 | 8.0 | 0.00 | 0.00 | 0.00 | 52 | 1020.2 |
| 20260901122543 | 77 | 317 | 2.0 | 8.0 | 0.00 | 0.00 | 0.00 | 53 | 1020.2 |
| 20260901122028 | 76 | 201 | 0.0 | 5.0 | 0.00 | 0.00 | 0.00 | 52 | 1020.2 |
| 20260901121538 | 77 | 316 | 1.0 | 6.0 | 0.00 | 0.00 | 0.00 | 51 | 1020.3 |
| 20260901121043 | 77 | 351 | 3.0 | 6.0 | 0.00 | 0.00 | 0.00 | 52 | 1020.4 |
| 20260901120532 | 77 | 11 | 1.0 | 6.0 | 0.00 | 0.00 | 0.00 | 51 | 1020.3 |
| 20260901120034 | 78 | 323 | 1.0 | 8.0 | 0.00 | 0.00 | 0.00 | 51 | 1020.3 |
| 20260901115529 | 78 | 355 | 3.0 | 8.0 | 0.00 | 0.00 | 0.00 | 52 | 1020.3 |
| 20260901115039 | 78 | 40 | 0.0 | 4.0 | 0.00 | 0.00 | 0.00 | 51 | 1020.4 |
| 20260901114548 | 78 | 82 | 0.0 | 6.0 | 0.00 | 0.00 | 0.00 | 53 | 1020.3 |
| 20260901114103 | 78 | 327 | 1.0 | 6.0 | 0.00 | 0.00 | 0.00 | 52 | 1020.4 |
| 20260901113532 | 77 | 309 | 3.0 | 5.0 | 0.00 | 0.00 | 0.00 | 53 | 1020.4 |
| 20260901113041 | 76 | 351 | 1.0 | 4.0 | 0.00 | 0.00 | 0.00 | 54 | 1020.5 |
| 20260901112531 | 76 | 44 | 2.0 | 4.0 | 0.00 | 0.00 | 0.00 | 53 | 1020.6 |
| 20260901112041 | 76 | 259 | 0.0 | 6.0 | 0.00 | 0.00 | 0.00 | 55 | 1020.7 |
| 20260901111534 | 76 | 323 | 2.0 | 6.0 | 0.00 | 0.00 | 0.00 | 53 | 1020.7 |
| 20260901111104 | 76 | 317 | 1.0 | 4.0 | 0.00 | 0.00 | 0.00 | 52 | 1020.7 |
| 20260901110619 | 76 | 299 | 1.0 | 5.0 | 0.00 | 0.00 | 0.00 | 54 | 1020.8 |
| 20260901110052 | 76 | 23 | 0.0 | 7.0 | 0.00 | 0.00 | 0.00 | 53 | 1020.7 |
| 20260901105547 | 76 | 316 | 1.0 | 8.0 | 0.00 | 0.00 | 0.00 | 53 | 1020.8 |
| 20260901105033 | 76 | 140 | 2.0 | 8.0 | 0.00 | 0.00 | 0.00 | 52 | 1020.9 |
| 20260901104545 | 75 | 31 | 3.0 | 5.0 | 0.00 | 0.00 | 0.00 | 54 | 1020.9 |
| 20260901104032 | 75 | 360 | 0.0 | 3.0 | 0.00 | 0.00 | 0.00 | 54 | 1021.0 |
| 20260901103543 | 76 | 328 | 1.0 | 5.0 | 0.00 | 0.00 | 0.00 | 54 | 1021.0 |
| 20260901103030 | 75 | 326 | 2.0 | 6.0 | 0.00 | 0.00 | 0.00 | 56 | 1021.0 |
| 20260901102538 | 74 | 360 | 2.0 | 6.0 | 0.00 | 0.00 | 0.00 | 55 | 1021.1 |
| 20260901102048 | 73 | 350 | 1.0 | 3.0 | 0.00 | 0.00 | 0.00 | 57 | 1021.0 |
| 20260901101541 | 73 | 360 | 1.0 | 3.0 | 0.00 | 0.00 | 0.00 | 55 | 1021.0 |
| 20260901101037 | 73 | 60 | 1.0 | 5.0 | 0.00 | 0.00 | 0.00 | 56 | 1021.1 |
| 20260901100544 | 73 | 306 | 1.0 | 6.0 | 0.00 | 0.00 | 0.00 | 56 | 1021.1 |
| 20260901100034 | 72 | 340 | 2.0 | 6.0 | 0.00 | 0.00 | 0.00 | 58 | 1021.1 |
| 20260901095545 | 72 | 12 | 1.0 | 5.0 | 0.00 | 0.00 | 0.00 | 57 | 1021.1 |
| 20260901095031 | 73 | 15 | 1.0 | 4.0 | 0.00 | 0.00 | 0.00 | 57 | 1021.1 |
| 20260901094540 | 72 | 52 | 0.0 | 5.0 | 0.00 | 0.00 | 0.00 | 60 | 1021.3 |
| 20260901094049 | 72 | 355 | 2.0 | 5.0 | 0.00 | 0.00 | 0.00 | 61 | 1021.3 |
| 20260901093604 | 71 | 70 | 0.0 | 3.0 | 0.00 | 0.00 | 0.00 | 60 | 1021.2 |
| 20260901093048 | 71 | 57 | 1.0 | 3.0 | 0.00 | 0.00 | 0.00 | 62 | 1021.2 |
| 20260901092538 | 72 | 94 | 0.0 | 2.0 | 0.00 | 0.00 | 0.00 | 63 | 1021.2 |
| 20260901092033 | 71 | 327 | 0.0 | 2.0 | 0.00 | 0.00 | 0.00 | 64 | 1021.2 |
| 20260901091545 | 71 | 14 | 0.0 | 3.0 | 0.00 | 0.00 | 0.00 | 64 | 1021.2 |
| 20260901091035 | 70 | 5 | 1.0 | 4.0 | 0.00 | 0.00 | 0.00 | 67 | 1021.2 |
| 20260901090552 | 69 | 12 | 0.0 | 2.0 | 0.00 | 0.00 | 0.00 | 68 | 1021.2 |
| 20260901090057 | 69 | 312 | 0.0 | 3.0 | 0.00 | 0.00 | 0.00 | 69 | 1021.2 |
| 20260901085548 | 69 | 333 | 1.0 | 3.0 | 0.00 | 0.00 | 0.00 | 69 | 1021.2 |
| 20260901085037 | 68 | 336 | 0.0 | 4.0 | 0.00 | 0.00 | 0.00 | 71 | 1021.1 |
| 20260901084529 | 68 | 5 | 1.0 | 4.0 | 0.00 | 0.00 | 0.00 | 69 | 1021.1 |
| 20260901084044 | 68 | 51 | 1.0 | 4.0 | 0.00 | 0.00 | 0.00 | 70 | 1021.1 |
| 20260901083601 | 68 | 355 | 1.0 | 4.0 | 0.00 | 0.00 | 0.00 | 69 | 1021.1 |
| 20260901083028 | 68 | 24 | 1.0 | 4.0 | 0.00 | 0.00 | 0.00 | 72 | 1021.1 |
| 20260901082541 | 67 | 328 | 1.0 | 3.0 | 0.00 | 0.00 | 0.00 | 75 | 1021.1 |
| 20260901082048 | 67 | 14 | 1.0 | 3.0 | 0.00 | 0.00 | 0.00 | 75 | 1021.1 |
| 20260901081537 | 66 | 61 | 0.0 | 2.0 | 0.00 | 0.00 | 0.00 | 77 | 1021.1 |
| 20260901081030 | 66 | 344 | 0.0 | 3.0 | 0.00 | 0.00 | 0.00 | 77 | 1021.1 |
| 20260901080605 | 66 | 18 | 1.0 | 3.0 | 0.00 | 0.00 | 0.00 | 76 | 1021.1 |
| 20260901080033 | 65 | 346 | 1.0 | 4.0 | 0.00 | 0.00 | 0.00 | 78 | 1021.1 |
| 20260901075531 | 65 | 5 | 2.0 | 4.0 | 0.00 | 0.00 | 0.00 | 76 | 1021.1 |
| 20260901075050 | 66 | 15 | 2.0 | 5.0 | 0.00 | 0.00 | 0.00 | 75 | 1021.1 |
| 20260901074547 | 65 | 5 | 1.0 | 6.0 | 0.00 | 0.00 | 0.00 | 78 | 1021.0 |
| 20260901074046 | 64 | 351 | 2.0 | 5.0 | 0.00 | 0.00 | 0.00 | 78 | 1020.9 |
| 20260901073604 | 64 | 360 | 2.0 | 5.0 | 0.00 | 0.00 | 0.00 | 80 | 1020.9 |
| 20260901073038 | 64 | 9 | 1.0 | 3.0 | 0.00 | 0.00 | 0.00 | 80 | 1020.8 |
| 20260901072529 | 64 | 355 | 1.0 | 4.0 | 0.00 | 0.00 | 0.00 | 80 | 1020.7 |
| 20260901072036 | 64 | 322 | 1.0 | 4.0 | 0.00 | 0.00 | 0.00 | 81 | 1020.7 |
| 20260901071545 | 63 | 355 | 2.0 | 4.0 | 0.00 | 0.00 | 0.00 | 81 | 1020.7 |
| 20260901071040 | 62 | 360 | 2.0 | 4.0 | 0.00 | 0.00 | 0.00 | 82 | 1020.7 |
| 20260901070556 | 62 | 342 | 2.0 | 4.0 | 0.00 | 0.00 | 0.00 | 83 | 1020.6 |
| 20260901070044 | 62 | 5 | 1.0 | 4.0 | 0.00 | 0.00 | 0.00 | 82 | 1020.6 |
| 20260901065537 | 62 | 28 | 1.0 | 4.0 | 0.00 | 0.00 | 0.00 | 83 | 1020.6 |
| 20260901065054 | 62 | 329 | 1.0 | 3.0 | 0.00 | 0.00 | 0.00 | 83 | 1020.6 |
| 20260901064543 | 62 | 355 | 1.0 | 4.0 | 0.00 | 0.00 | 0.00 | 84 | 1020.5 |
| 20260901064039 | 62 | 355 | 1.0 | 3.0 | 0.00 | 0.00 | 0.00 | 84 | 1020.5 |
| 20260901063536 | 61 | 331 | 0.0 | 2.0 | 0.00 | 0.00 | 0.00 | 85 | 1020.5 |
| 20260901063030 | 61 | 15 | 1.0 | 3.0 | 0.00 | 0.00 | 0.00 | 85 | 1020.5 |
| 20260901062543 | 61 | 340 | 1.0 | 2.0 | 0.00 | 0.00 | 0.00 | 86 | 1020.5 |
| 20260901062033 | 60 | 333 | 1.0 | 2.0 | 0.00 | 0.00 | 0.00 | 86 | 1020.4 |
| 20260901061530 | 60 | 5 | 1.0 | 2.0 | 0.00 | 0.00 | 0.00 | 87 | 1020.4 |
| 20260901061058 | 60 | 340 | 1.0 | 2.0 | 0.00 | 0.00 | 0.00 | 89 | 1020.3 |
| 20260901060553 | 59 | 326 | 0.0 | 3.0 | 0.00 | 0.00 | 0.00 | 89 | 1020.4 |
| 20260901060044 | 58 | 9 | 1.0 | 3.0 | 0.00 | 0.00 | 0.00 | 89 | 1020.3 |
| 20260901055538 | 58 | 343 | 1.0 | 3.0 | 0.00 | 0.00 | 0.00 | 89 | 1020.2 |
| 20260901055037 | 58 | 344 | 1.0 | 3.0 | 0.00 | 0.00 | 0.00 | 89 | 1020.3 |
| 20260901054547 | 58 | 344 | 1.0 | 3.0 | 0.00 | 0.00 | 0.00 | 89 | 1020.2 |
| 20260901054032 | 58 | 331 | 1.0 | 1.0 | 0.00 | 0.00 | 0.00 | 88 | 1020.2 |
| 20260901053546 | 58 | 346 | 0.0 | 2.0 | 0.00 | 0.00 | 0.00 | 88 | 1020.1 |
| 20260901053042 | 58 | 349 | 1.0 | 2.0 | 0.00 | 0.00 | 0.00 | 88 | 1020.1 |
| 20260901052534 | 58 | 338 | 0.0 | 2.0 | 0.00 | 0.00 | 0.00 | 88 | 1020.0 |
| 20260901052031 | 58 | 331 | 1.0 | 2.0 | 0.00 | 0.00 | 0.00 | 88 | 1019.9 |
| 20260901051530 | 58 | 344 | 1.0 | 1.0 | 0.00 | 0.00 | 0.00 | 87 | 1019.9 |
| 20260901051049 | 59 | 338 | 0.0 | 2.0 | 0.00 | 0.00 | 0.00 | 87 | 1019.8 |
| 20260901050536 | 59 | 355 | 0.0 | 3.0 | 0.00 | 0.00 | 0.00 | 87 | 1019.9 |
| 20260901050031 | 59 | 331 | 1.0 | 4.0 | 0.00 | 0.00 | 0.00 | 87 | 1019.9 |
| 20260901045532 | 59 | 327 | 1.0 | 4.0 | 0.00 | 0.00 | 0.00 | 87 | 1019.9 |
| 20260901045032 | 59 | 348 | 1.0 | 3.0 | 0.00 | 0.00 | 0.00 | 87 | 1019.9 |
| 20260901044529 | 59 | 331 | 1.0 | 3.0 | 0.00 | 0.00 | 0.00 | 86 | 1020.0 |
| 20260901044046 | 59 | 333 | 1.0 | 3.0 | 0.00 | 0.00 | 0.00 | 87 | 1020.0 |
| 20260901043534 | 59 | 344 | 1.0 | 3.0 | 0.00 | 0.00 | 0.00 | 86 | 1019.9 |
| 20260901043037 | 59 | 342 | 1.0 | 3.0 | 0.00 | 0.00 | 0.00 | 86 | 1019.9 |
| 20260901042531 | 59 | 344 | 0.0 | 1.0 | 0.00 | 0.00 | 0.00 | 86 | 1019.9 |
| 20260901042043 | 60 | 348 | 0.0 | 2.0 | 0.00 | 0.00 | 0.00 | 86 | 1019.9 |
| 20260901041540 | 60 | 355 | 1.0 | 2.0 | 0.00 | 0.00 | 0.00 | 86 | 1020.0 |
| 20260901041035 | 60 | 327 | 1.0 | 2.0 | 0.00 | 0.00 | 0.00 | 86 | 1020.0 |
| 20260901040527 | 60 | 325 | 1.0 | 2.0 | 0.00 | 0.00 | 0.00 | 86 | 1019.9 |
| 20260901040048 | 60 | 327 | 0.0 | 1.0 | 0.00 | 0.00 | 0.00 | 86 | 1019.9 |
| 20260901035600 | 60 | 327 | 0.0 | 1.0 | 0.00 | 0.00 | 0.00 | 86 | 1019.9 |
| 20260901035032 | 60 | 355 | 0.0 | 2.0 | 0.00 | 0.00 | 0.00 | 85 | 1019.8 |
| 20260901034530 | 60 | 334 | 1.0 | 3.0 | 0.00 | 0.00 | 0.00 | 85 | 1019.8 |
| 20260901034044 | 60 | 331 | 1.0 | 4.0 | 0.00 | 0.00 | 0.00 | 85 | 1019.8 |
| 20260901033545 | 59 | 340 | 1.0 | 4.0 | 0.00 | 0.00 | 0.00 | 86 | 1019.8 |
| 20260901033041 | 59 | 333 | 1.0 | 3.0 | 0.00 | 0.00 | 0.00 | 87 | 1019.8 |
| 20260901032536 | 58 | 331 | 1.0 | 3.0 | 0.00 | 0.00 | 0.00 | 87 | 1019.9 |
| 20260901032053 | 58 | 322 | 0.0 | 1.0 | 0.00 | 0.00 | 0.00 | 87 | 1019.9 |
| 20260901031531 | 58 | 337 | 0.0 | 1.0 | 0.00 | 0.00 | 0.00 | 87 | 1020.0 |
| 20260901031046 | 58 | 311 | 0.0 | 1.0 | 0.00 | 0.00 | 0.00 | 87 | 1019.9 |
| 20260901030601 | 59 | 315 | 0.0 | 1.0 | 0.00 | 0.00 | 0.00 | 87 | 1019.9 |
| 20260901030029 | 59 | 311 | 0.0 | 1.0 | 0.00 | 0.00 | 0.00 | 86 | 1019.9 |
| 20260901025542 | 60 | 311 | 0.0 | 1.0 | 0.00 | 0.00 | 0.00 | 85 | 1019.8 |
| 20260901025038 | 60 | 311 | 0.0 | 1.0 | 0.00 | 0.00 | 0.00 | 84 | 1019.8 |
| 20260901024557 | 60 | 315 | 0.0 | 1.0 | 0.00 | 0.00 | 0.00 | 84 | 1019.8 |
| 20260901024028 | 60 | 311 | 0.0 | 1.0 | 0.00 | 0.00 | 0.00 | 83 | 1019.9 |
| 20260901023540 | 60 | 304 | 0.0 | 1.0 | 0.00 | 0.00 | 0.00 | 82 | 1019.8 |
| 20260901023033 | 60 | 303 | 0.0 | 1.0 | 0.00 | 0.00 | 0.00 | 83 | 1019.8 |
| 20260901022546 | 61 | 306 | 0.0 | 1.0 | 0.00 | 0.00 | 0.00 | 83 | 1019.8 |
| 20260901022034 | 61 | 306 | 0.0 | 1.0 | 0.00 | 0.00 | 0.00 | 84 | 1019.8 |
| 20260901021532 | 61 | 306 | 0.0 | 1.0 | 0.00 | 0.00 | 0.00 | 84 | 1019.8 |
| 20260901021046 | 61 | 308 | 0.0 | 1.0 | 0.00 | 0.00 | 0.00 | 83 | 1019.8 |
| 20260901020559 | 61 | 300 | 0.0 | 2.0 | 0.00 | 0.00 | 0.00 | 82 | 1019.7 |
| 20260901020044 | 61 | 301 | 0.0 | 1.0 | 0.00 | 0.00 | 0.00 | 83 | 1019.7 |
| 20260901015604 | 61 | 301 | 0.0 | 1.0 | 0.00 | 0.00 | 0.00 | 83 | 1019.7 |
| 20260901015041 | 61 | 302 | 0.0 | 1.0 | 0.00 | 0.00 | 0.00 | 84 | 1019.7 |
| 20260901014538 | 61 | 304 | 0.0 | 2.0 | 0.00 | 0.00 | 0.00 | 83 | 1019.7 |
| 20260901014030 | 60 | 306 | 0.0 | 2.0 | 0.00 | 0.00 | 0.00 | 84 | 1019.7 |
| 20260901013544 | 61 | 296 | 1.0 | 1.0 | 0.00 | 0.00 | 0.00 | 85 | 1019.6 |
| 20260901013036 | 60 | 300 | 1.0 | 2.0 | 0.00 | 0.00 | 0.00 | 84 | 1019.6 |
| 20260901012532 | 60 | 306 | 1.0 | 2.0 | 0.00 | 0.00 | 0.00 | 84 | 1019.6 |
| 20260901012101 | 60 | 301 | 1.0 | 1.0 | 0.00 | 0.00 | 0.00 | 85 | 1019.7 |
| 20260901011537 | 60 | 298 | 0.0 | 1.0 | 0.00 | 0.00 | 0.00 | 85 | 1019.5 |
| 20260901011057 | 60 | 300 | 0.0 | 2.0 | 0.00 | 0.00 | 0.00 | 85 | 1019.6 |
| 20260901010537 | 60 | 307 | 1.0 | 2.0 | 0.00 | 0.00 | 0.00 | 85 | 1019.5 |
| 20260901010028 | 60 | 299 | 0.0 | 2.0 | 0.00 | 0.00 | 0.00 | 85 | 1019.5 |
| 20260901005540 | 60 | 297 | 0.0 | 0.0 | 0.00 | 0.00 | 0.00 | 86 | 1019.5 |
| 20260901005050 | 60 | 290 | 0.0 | 0.0 | 0.00 | 0.00 | 0.00 | 86 | 1019.5 |
| 20260901004542 | 59 | 290 | 0.0 | 0.0 | 0.00 | 0.00 | 0.00 | 86 | 1019.5 |
| 20260901004033 | 59 | 299 | 0.0 | 0.0 | 0.00 | 0.00 | 0.00 | 86 | 1019.5 |
| 20260901003544 | 59 | 274 | 0.0 | 0.0 | 0.00 | 0.00 | 0.00 | 86 | 1019.5 |
| 20260901003044 | 59 | 274 | 0.0 | 0.0 | 0.00 | 0.00 | 0.00 | 87 | 1019.5 |
| 20260901002538 | 59 | 274 | 0.0 | 0.0 | 0.00 | 0.00 | 0.00 | 87 | 1019.6 |
| 20260901002027 | 59 | 274 | 0.0 | 0.0 | 0.00 | 0.00 | 0.00 | 87 | 1019.6 |
| 20260901001542 | 59 | 274 | 0.0 | 0.0 | 0.00 | 0.00 | 0.00 | 87 | 1019.6 |
| 20260901001034 | 59 | 274 | 0.0 | 0.0 | 0.00 | 0.00 | 0.00 | 86 | 1019.5 |
| 20260901000549 | 59 | 274 | 0.0 | 0.0 | 0.00 | 0.00 | 0.00 | 86 | 1019.5 |
| 20260901000049 | 59 | 274 | 0.0 | 0.0 | 0.00 | 0.00 | 0.00 | 86 | 1019.5 |
| 20260831235549 | 59 | 274 | 0.0 | 0.0 | 0.00 | 0.00 | 0.00 | 86 | 1019.6 |
| 20260831235043 | 59 | 274 | 0.0 | 0.0 | 0.00 | 0.00 | 0.00 | 86 | 1019.6 |
| 20260831234535 | 59 | 274 | 0.0 | 0.0 | 0.00 | 0.00 | 0.00 | 86 | 1019.6 |
| 20260831234032 | 59 | 274 | 0.0 | 0.0 | 0.00 | 0.00 | 0.00 | 86 | 1019.5 |
| 20260831233531 | 59 | 274 | 0.0 | 0.0 | 0.00 | 0.00 | 0.00 | 85 | 1019.5 |
| 20260831233059 | 59 | 274 | 0.0 | 0.0 | 0.00 | 0.00 | 0.00 | 85 | 1019.5 |
| 20260831232532 | 60 | 274 | 0.0 | 0.0 | 0.00 | 0.00 | 0.00 | 84 | 1019.5 |
| 20260831232032 | 60 | 274 | 0.0 | 0.0 | 0.00 | 0.00 | 0.00 | 84 | 1019.5 |
| 20260831231532 | 60 | 274 | 0.0 | 0.0 | 0.00 | 0.00 | 0.00 | 84 | 1019.5 |
| 20260831231101 | 60 | 274 | 0.0 | 0.0 | 0.00 | 0.00 | 0.00 | 84 | 1019.4 |
| 20260831230534 | 60 | 274 | 0.0 | 0.0 | 0.00 | 0.00 | 0.00 | 84 | 1019.5 |
| 20260831230050 | 60 | 274 | 0.0 | 0.0 | 0.00 | 0.00 | 0.00 | 84 | 1019.5 |
| 20260831225542 | 60 | 274 | 0.0 | 0.0 | 0.00 | 0.00 | 0.00 | 83 | 1019.5 |
| 20260831225035 | 60 | 306 | 0.0 | 1.0 | 0.00 | 0.00 | 0.00 | 83 | 1019.5 |
| 20260831224546 | 60 | 306 | 0.0 | 1.0 | 0.00 | 0.00 | 0.00 | 83 | 1019.4 |
| 20260831224040 | 61 | 301 | 0.0 | 1.0 | 0.00 | 0.00 | 0.00 | 83 | 1019.4 |
| 20260831223601 | 61 | 248 | 0.0 | 0.0 | 0.00 | 0.00 | 0.00 | 82 | 1019.4 |
| 20260831223041 | 61 | 248 | 0.0 | 0.0 | 0.00 | 0.00 | 0.00 | 82 | 1019.4 |
| 20260831222533 | 61 | 248 | 0.0 | 0.0 | 0.00 | 0.00 | 0.00 | 82 | 1019.5 |
| 20260831222046 | 61 | 248 | 0.0 | 0.0 | 0.00 | 0.00 | 0.00 | 82 | 1019.4 |
| 20260831221602 | 61 | 248 | 0.0 | 1.0 | 0.00 | 0.00 | 0.00 | 81 | 1019.4 |
| 20260831221028 | 61 | 248 | 0.0 | 1.0 | 0.00 | 0.00 | 0.00 | 81 | 1019.4 |
| 20260831220538 | 62 | 244 | 0.0 | 0.0 | 0.00 | 0.00 | 0.00 | 81 | 1019.4 |
| 20260831220037 | 62 | 245 | 0.0 | 0.0 | 0.00 | 0.00 | 0.00 | 81 | 1019.4 |
| 20260831215531 | 62 | 244 | 0.0 | 0.0 | 0.00 | 0.00 | 0.00 | 82 | 1019.4 |
| 20260831215104 | 62 | 245 | 0.0 | 0.0 | 0.00 | 0.00 | 0.00 | 82 | 1019.4 |
| 20260831214539 | 62 | 244 | 0.0 | 1.0 | 0.00 | 0.00 | 0.00 | 81 | 1019.4 |
| 20260831214031 | 62 | 245 | 0.0 | 1.0 | 0.00 | 0.00 | 0.00 | 81 | 1019.5 |
| 20260831213531 | 63 | 330 | 0.0 | 0.0 | 0.00 | 0.00 | 0.00 | 80 | 1019.4 |
| 20260831213040 | 63 | 330 | 0.0 | 0.0 | 0.00 | 0.00 | 0.00 | 81 | 1019.4 |
| 20260831212557 | 63 | 330 | 0.0 | 0.0 | 0.00 | 0.00 | 0.00 | 81 | 1019.3 |
| 20260831212046 | 63 | 330 | 0.0 | 0.0 | 0.00 | 0.00 | 0.00 | 80 | 1019.2 |
| 20260831211604 | 63 | 330 | 0.0 | 0.0 | 0.00 | 0.00 | 0.00 | 79 | 1019.2 |
| 20260831211036 | 63 | 330 | 0.0 | 0.0 | 0.00 | 0.00 | 0.00 | 78 | 1019.1 |
| 20260831210553 | 64 | 330 | 0.0 | 1.0 | 0.00 | 0.00 | 0.00 | 78 | 1019.1 |
| 20260831210040 | 64 | 330 | 0.0 | 1.0 | 0.00 | 0.00 | 0.00 | 77 | 1019.0 |
| 20260831205534 | 64 | 330 | 0.0 | 1.0 | 0.00 | 0.00 | 0.00 | 77 | 1018.9 |
| 20260831205028 | 65 | 284 | 0.0 | 0.0 | 0.00 | 0.00 | 0.00 | 76 | 1019.0 |
| 20260831204542 | 65 | 284 | 0.0 | 0.0 | 0.00 | 0.00 | 0.00 | 75 | 1018.9 |
| 20260831204040 | 65 | 284 | 0.0 | 1.0 | 0.00 | 0.00 | 0.00 | 75 | 1018.9 |
| 20260831203544 | 66 | 284 | 0.0 | 1.0 | 0.00 | 0.00 | 0.00 | 75 | 1018.9 |
| 20260831203037 | 66 | 297 | 0.0 | 0.0 | 0.00 | 0.00 | 0.00 | 74 | 1018.9 |
| 20260831202530 | 66 | 297 | 0.0 | 0.0 | 0.00 | 0.00 | 0.00 | 73 | 1018.9 |
| 20260831202040 | 66 | 297 | 0.0 | 0.0 | 0.00 | 0.00 | 0.00 | 73 | 1018.8 |
| 20260831201534 | 66 | 297 | 0.0 | 0.0 | 0.00 | 0.00 | 0.00 | 72 | 1018.7 |
| 20260831201053 | 67 | 297 | 0.0 | 0.0 | 0.00 | 0.00 | 0.00 | 71 | 1018.8 |
| 20260831200544 | 67 | 297 | 0.0 | 1.0 | 0.00 | 0.00 | 0.00 | 70 | 1018.8 |
| 20260831200035 | 67 | 297 | 0.0 | 1.0 | 0.00 | 0.00 | 0.00 | 70 | 1018.7 |
| 20260831195545 | 67 | 303 | 0.0 | 1.0 | 0.00 | 0.00 | 0.00 | 69 | 1018.7 |
| 20260831195040 | 67 | 306 | 0.0 | 1.0 | 0.00 | 0.00 | 0.00 | 69 | 1018.6 |
| 20260831194536 | 68 | 307 | 0.0 | 1.0 | 0.00 | 0.00 | 0.00 | 68 | 1018.5 |
| 20260831194031 | 68 | 309 | 0.0 | 1.0 | 0.00 | 0.00 | 0.00 | 68 | 1018.5 |
| 20260831193542 | 68 | 311 | 0.0 | 1.0 | 0.00 | 0.00 | 0.00 | 67 | 1018.4 |
| 20260831193034 | 68 | 311 | 0.0 | 1.0 | 0.00 | 0.00 | 0.00 | 67 | 1018.4 |
| 20260831192531 | 68 | 313 | 0.0 | 2.0 | 0.00 | 0.00 | 0.00 | 67 | 1018.3 |
| 20260831192042 | 69 | 319 | 1.0 | 2.0 | 0.00 | 0.00 | 0.00 | 65 | 1018.3 |
| 20260831191534 | 69 | 312 | 0.0 | 1.0 | 0.00 | 0.00 | 0.00 | 65 | 1018.2 |
| 20260831191025 | 69 | 303 | 0.0 | 1.0 | 0.00 | 0.00 | 0.00 | 64 | 1018.1 |
| 20260831190547 | 69 | 294 | 0.0 | 1.0 | 0.00 | 0.00 | 0.00 | 63 | 1018.1 |
| 20260831190041 | 70 | 297 | 0.0 | 1.0 | 0.00 | 0.00 | 0.00 | 63 | 1018.1 |
| 20260831185534 | 70 | 325 | 0.0 | 1.0 | 0.00 | 0.00 | 0.00 | 62 | 1018.0 |
| 20260831185031 | 70 | 325 | 0.0 | 2.0 | 0.00 | 0.00 | 0.00 | 62 | 1017.9 |
| 20260831184539 | 71 | 329 | 1.0 | 2.0 | 0.00 | 0.00 | 0.00 | 61 | 1017.9 |
| 20260831184036 | 71 | 319 | 0.0 | 2.0 | 0.00 | 0.00 | 0.00 | 60 | 1017.8 |
| 20260831183553 | 71 | 337 | 0.0 | 1.0 | 0.00 | 0.00 | 0.00 | 60 | 1017.7 |
| 20260831183045 | 72 | 310 | 0.0 | 1.0 | 0.00 | 0.00 | 0.00 | 58 | 1017.7 |
| 20260831182541 | 72 | 305 | 0.0 | 2.0 | 0.00 | 0.00 | 0.00 | 57 | 1017.6 |
| 20260831182032 | 73 | 305 | 0.0 | 2.0 | 0.00 | 0.00 | 0.00 | 57 | 1017.5 |
| 20260831181553 | 73 | 280 | 0.0 | 1.0 | 0.00 | 0.00 | 0.00 | 55 | 1017.4 |
| 20260831181042 | 73 | 306 | 0.0 | 4.0 | 0.00 | 0.00 | 0.00 | 55 | 1017.4 |
| 20260831180559 | 74 | 287 | 1.0 | 4.0 | 0.00 | 0.00 | 0.00 | 56 | 1017.3 |
| 20260831180027 | 74 | 303 | 2.0 | 4.0 | 0.00 | 0.04 | 0.00 | 54 | 1017.2 |
| 20260831175542 | 74 | 321 | 1.0 | 6.0 | 0.00 | 0.04 | 0.00 | 54 | 1017.2 |
| 20260831175037 | 74 | 298 | 2.0 | 6.0 | 0.00 | 0.04 | 0.00 | 54 | 1017.2 |
| 20260831174533 | 75 | 296 | 2.0 | 6.0 | 0.00 | 0.04 | 0.00 | 53 | 1017.2 |
| 20260831174029 | 75 | 309 | 1.0 | 8.0 | 0.00 | 0.04 | 0.00 | 53 | 1017.1 |
| 20260831173548 | 75 | 309 | 2.0 | 9.0 | 0.00 | 0.04 | 0.00 | 52 | 1017.0 |
| 20260831173058 | 76 | 292 | 4.0 | 12.0 | 0.00 | 0.04 | 0.00 | 51 | 1017.0 |
| 20260831172534 | 76 | 309 | 3.0 | 13.0 | 0.00 | 0.04 | 0.00 | 51 | 1017.0 |
| 20260831172032 | 75 | 265 | 6.0 | 13.0 | 0.00 | 0.04 | 0.00 | 51 | 1017.0 |
| 20260831171548 | 75 | 282 | 5.0 | 12.0 | 0.00 | 0.04 | 0.00 | 51 | 1017.0 |
| 20260831171041 | 76 | 329 | 4.0 | 11.0 | 0.00 | 0.04 | 0.00 | 50 | 1017.0 |
| 20260831170534 | 76 | 321 | 2.0 | 11.0 | 0.00 | 0.04 | 0.00 | 50 | 1016.9 |
| 20260831170057 | 77 | 283 | 3.0 | 12.0 | 0.00 | 0.04 | 0.00 | 49 | 1016.9 |
| 20260831165531 | 77 | 279 | 4.0 | 16.0 | 0.00 | 0.04 | 0.00 | 48 | 1016.9 |
| 20260831165031 | 77 | 286 | 6.0 | 16.0 | 0.00 | 0.04 | 0.00 | 48 | 1016.8 |
| 20260831164544 | 78 | 304 | 6.0 | 15.0 | 0.00 | 0.04 | 0.00 | 48 | 1016.8 |
| 20260831164058 | 78 | 327 | 6.0 | 15.0 | 0.00 | 0.04 | 0.00 | 48 | 1016.7 |
| 20260831163536 | 79 | 290 | 8.0 | 14.0 | 0.00 | 0.04 | 0.00 | 48 | 1016.8 |
| 20260831163028 | 79 | 297 | 7.0 | 14.0 | 0.00 | 0.04 | 0.00 | 48 | 1016.8 |
| 20260831162541 | 79 | 321 | 5.0 | 13.0 | 0.00 | 0.04 | 0.00 | 47 | 1016.8 |
| 20260831162035 | 79 | 264 | 5.0 | 12.0 | 0.00 | 0.04 | 0.00 | 48 | 1016.7 |
| 20260831161549 | 79 | 311 | 5.0 | 14.0 | 0.00 | 0.04 | 0.00 | 46 | 1016.6 |